Kingman, AZ

6:22 PM MST on April 28, 2017 (GMT -0700)
Kingman

Weather History for KIGM - September, 2013

Change the Weather History Date:

Saturday, September 14, 2013

  Actual Average Record
Temperature  
Mean Temperature 75 °F 76 °F  
Max Temperature 90 °F 91 °F 102 °F (1971)
Min Temperature 59 °F 62 °F 46 °F (1994)
Degree Days  
Heating Degree Days 0 0  
Month to date heating degree days 0 0  
Since 1 July heating degree days 0 0  
Cooling Degree Days 10 12  
Month to date cooling degree days 143 190  
Year to date cooling degree days 2017 1891  
Growing Degree Days 24 (Base 50)    
Moisture  
Dew Point 55 °F    
Average Humidity 56    
Maximum Humidity 87    
Minimum Humidity 24    
Precipitation  
Precipitation 0.00 in 0.05 in 0.23 in (1959)
Month to date precipitation 1.80 0.64  
Year to date precipitation 5.84 5.91  
Sea Level Pressure  
Sea Level Pressure 29.67 in    
Wind  
Wind Speed 3 mph (NW)    
Max Wind Speed 15 mph    
Max Gust Speed 18 mph    
Visibility 10 miles    
Events      
T = Trace of Precipitation, MM = Missing Value Source: NWS Daily Summary

Daily Weather History Graph

Daily Weather History Graph

Search for Another Location

Airport or City:

Trip Planner

Search our weather history database for the weather conditions in past years. The results will help you decide how hot, cold, wet, or windy it might be!

Date:

Astronomy

Sep. 14, 2013 Rise Set
Actual Time 6:18 AM MST 6:43 PM MST
Civil Twilight 5:52 AM MST 7:09 PM MST
Nautical Twilight 5:22 AM MST 7:38 PM MST
Astronomical Twilight 4:52 AM MST 8:09 PM MST
Moon 3:20 PM MST (9/14) 1:03 AM MST (9/14)
Length of Visible Light 13h 16m
Length of Day
12h 25m
Waxing Gibbous, 73% of the Moon is Illuminated
Sep 14
Waxing Gibbous
Sep 19
Full
Sep 26
Last Quarter
Oct 4
New
Oct 11
First Quarter

Hourly Weather History & Observations

Time (MST) Temp. Heat Index Dew Point Humidity Pressure Visibility Wind Dir Wind Speed Gust Speed Precip Events Conditions
12:51 AM 63.0 °F - 57.0 °F 81% 29.67 in 10.0 mi Calm Calm - N/A   Clear
1:51 AM 62.1 °F - 57.0 °F 84% 29.67 in 10.0 mi Calm Calm - N/A   Clear
2:51 AM 62.1 °F - 55.9 °F 80% 29.66 in 10.0 mi SE 3.5 mph - N/A   Clear
3:51 AM 62.1 °F - 55.9 °F 80% 29.65 in 10.0 mi Calm Calm - N/A   Clear
4:51 AM 60.1 °F - 55.0 °F 83% 29.66 in 10.0 mi Calm Calm - N/A   Clear
5:51 AM 59.0 °F - 55.0 °F 87% 29.67 in 10.0 mi Calm Calm - N/A   Clear
6:51 AM 61.0 °F - 55.9 °F 83% 29.69 in 10.0 mi Calm Calm - N/A   Clear
7:51 AM 71.1 °F - 55.9 °F 59% 29.70 in 10.0 mi Calm Calm - N/A   Clear
8:51 AM 73.9 °F - 57.0 °F 55% 29.70 in 10.0 mi Calm Calm - N/A   Clear
9:51 AM 79.0 °F - 57.0 °F 47% 29.71 in 10.0 mi North 3.5 mph - N/A   Clear
10:51 AM 82.0 °F 81.7 °F 57.0 °F 42% 29.71 in 10.0 mi Calm Calm - N/A   Clear
11:51 AM 84.9 °F 83.9 °F 57.0 °F 38% 29.69 in 10.0 mi Calm Calm - N/A   Clear
12:51 PM 87.1 °F 85.3 °F 55.0 °F 33% 29.68 in 10.0 mi Variable 3.5 mph - N/A   Clear
1:51 PM 89.1 °F 86.9 °F 54.0 °F 30% 29.65 in 10.0 mi Variable 6.9 mph - N/A   Clear
2:51 PM 89.1 °F - 52.0 °F 28% 29.63 in 10.0 mi WNW 6.9 mph - N/A   Clear
3:51 PM 89.1 °F - 48.9 °F 25% 29.62 in 10.0 mi West 12.7 mph - N/A   Clear
4:51 PM 88.0 °F - 50.0 °F 27% 29.62 in 10.0 mi WNW 8.1 mph - N/A   Clear
5:51 PM 86.0 °F - 51.1 °F 30% 29.63 in 10.0 mi WNW 8.1 mph - N/A   Clear
6:51 PM 79.0 °F - 57.0 °F 47% 29.65 in 7.0 mi North 4.6 mph - N/A   Clear
7:51 PM 70.0 °F - 61.0 °F 73% 29.67 in 10.0 mi SE 3.5 mph - N/A   Clear
8:51 PM 68.0 °F - 60.1 °F 76% 29.69 in 10.0 mi ESE 5.8 mph - N/A   Clear
9:51 PM 68.0 °F - 57.0 °F 68% 29.68 in 10.0 mi SE 9.2 mph - N/A   Clear
10:51 PM 69.1 °F - 55.0 °F 61% 29.69 in 10.0 mi Calm Calm - N/A   Clear
11:51 PM 68.0 °F - 55.0 °F 63% 29.68 in 10.0 mi Calm Calm - N/A   Clear